DB0TGO-14 Weather Reports


Display with metric or nautical units.
time (UTC)temp
F
wind
direction
speed
MPH
gust
MPH
rain 1hr
in
rain 24hr
in
rain mn
in
humidity
%
barometer
mb
20260831053940 63 0 0.0 0.0 0.00 0.00 0.00 82 1011.9
20260831053759 63 0 0.0 0.0 0.00 0.00 0.00 82 1011.9
20260831053620 63 0 0.0 0.0 0.00 0.00 0.00 82 1011.9
20260831053420 63 0 0.0 0.0 0.00 0.00 0.00 82 1011.9
20260831053231 63 0 0.0 0.0 0.00 0.00 0.00 82 1011.9
20260831053039 63 0 0.0 0.0 0.00 0.00 0.00 82 1011.8
20260831052855 63 0 0.0 0.0 0.00 0.00 0.00 82 1011.8
20260831052835 63 0 0.0 0.0 0.00 0.00 0.00 81 1011.8
20260831052702 63 0 0.0 0.0 0.00 0.00 0.00 81 1011.8
20260831052510 63 0 0.0 0.0 0.00 0.00 0.00 82 1011.9
20260831052326 63 0 0.0 0.0 0.00 0.00 0.00 81 1011.9
20260831052146 63 0 0.0 0.0 0.00 0.00 0.00 81 1011.9
20260831052011 63 0 0.0 0.0 0.00 0.00 0.00 81 1011.9
20260831051815 63 90 0.0 1.0 0.00 0.00 0.00 81 1012.0
20260831051620 63 90 0.0 1.0 0.00 0.00 0.00 80 1012.0
20260831051420 63 90 1.0 2.0 0.00 0.00 0.00 81 1012.1
20260831051226 63 90 1.0 2.0 0.00 0.00 0.00 81 1012.1
20260831051128 63 90 1.0 3.0 0.00 0.00 0.00 81 1012.1
20260831051047 63 90 1.0 3.0 0.00 0.00 0.00 82 1012.0
20260831050850 63 90 2.0 5.0 0.00 0.00 0.00 81 1012.0
20260831050702 63 90 1.0 5.0 0.00 0.00 0.00 81 1012.0
20260831050525 63 90 1.0 5.0 0.00 0.00 0.00 82 1012.0
20260831050335 63 68 1.0 3.0 0.00 0.00 0.00 82 1012.0
20260831050155 62 68 1.0 3.0 0.00 0.00 0.00 82 1012.0
20260831050004 62 68 2.0 3.0 0.00 0.00 0.00 83 1012.0
20260831045815 62 68 2.0 3.0 0.00 0.00 0.00 83 1011.9
20260831045613 62 68 2.0 3.0 0.00 0.00 0.00 83 1012.0
20260831045430 62 68 1.0 3.0 0.00 0.00 0.00 83 1011.9
20260831045241 62 68 1.0 3.0 0.00 0.00 0.00 83 1011.9
20260831045055 62 68 1.0 3.0 0.00 0.00 0.00 84 1011.9
20260831044852 62 68 1.0 3.0 0.00 0.00 0.00 84 1012.0
20260831044704 62 68 1.0 3.0 0.00 0.00 0.00 84 1012.1
20260831044518 62 68 0.0 2.0 0.00 0.00 0.00 85 1012.0
20260831044340 62 68 0.0 2.0 0.00 0.00 0.00 85 1012.2
20260831044205 62 68 1.0 2.0 0.00 0.00 0.00 85 1012.2
20260831044010 62 68 1.0 2.0 0.00 0.00 0.00 85 1012.1
20260831043820 62 68 1.0 3.0 0.00 0.00 0.00 85 1012.1
20260831043640 62 68 1.0 3.0 0.00 0.00 0.00 85 1012.0
20260831043459 62 68 2.0 3.0 0.00 0.00 0.00 86 1012.0
20260831043413 61 68 2.0 3.0 0.00 0.00 0.00 86 1012.0
20260831043315 61 68 2.0 3.0 0.00 0.00 0.00 86 1012.0
20260831043125 61 68 1.0 3.0 0.00 0.00 0.00 86 1012.2
20260831042923 61 68 1.0 3.0 0.00 0.00 0.00 85 1012.2
20260831042740 61 68 0.0 2.0 0.00 0.00 0.00 86 1012.1
20260831042605 61 0 0.0 2.0 0.00 0.00 0.00 87 1012.1
20260831042425 61 0 0.0 0.0 0.00 0.00 0.00 88 1012.1
20260831042245 61 0 0.0 0.0 0.00 0.00 0.00 87 1011.9
20260831042103 61 68 0.0 0.0 0.00 0.00 0.00 88 1012.0
20260831041910 61 68 0.0 2.0 0.00 0.00 0.00 87 1012.0
20260831041725 61 68 0.0 2.0 0.00 0.00 0.00 87 1011.9
20260831041545 61 68 0.0 2.0 0.00 0.00 0.00 87 1011.8
20260831041355 61 68 0.0 1.0 0.00 0.00 0.00 87 1011.9
20260831041215 61 0 0.0 0.0 0.00 0.00 0.00 88 1011.9
20260831041035 62 0 0.0 0.0 0.00 0.00 0.00 87 1012.1
20260831040855 62 0 0.0 0.0 0.00 0.00 0.00 87 1012.0
20260831040715 62 0 0.0 0.0 0.00 0.00 0.00 87 1012.0
20260831040530 62 68 0.0 0.0 0.00 0.00 0.00 87 1012.0
20260831040330 62 68 0.0 0.0 0.00 0.00 0.00 87 1012.0
20260831040150 62 68 1.0 1.0 0.00 0.00 0.00 87 1012.1
20260831035931 62 68 1.0 2.0 0.00 0.00 0.00 87 1012.0
20260831035749 62 68 2.0 3.0 0.00 0.00 0.00 87 1012.1
20260831035559 61 68 1.0 5.0 0.00 0.00 0.00 87 1012.2
20260831035410 61 68 1.0 5.0 0.00 0.00 0.00 87 1012.1
20260831035215 61 68 1.0 5.0 0.00 0.00 0.00 87 1012.1
20260831035035 61 248 0.0 3.0 0.00 0.00 0.00 87 1012.2
20260831034835 61 0 0.0 2.0 0.00 0.00 0.00 87 1012.2
20260831034645 61 0 0.0 0.0 0.00 0.00 0.00 88 1012.4
20260831034523 61 248 0.0 0.0 0.00 0.00 0.00 88 1012.3
20260831034305 61 248 0.0 0.0 0.00 0.00 0.00 88 1012.3
20260831034113 61 248 0.0 2.0 0.00 0.00 0.00 89 1012.3
20260831034058 61 248 0.0 2.0 0.00 0.00 0.00 88 1012.3
20260831033925 61 248 0.0 2.0 0.00 0.00 0.00 89 1012.2
20260831033745 61 0 0.0 2.0 0.00 0.00 0.00 89 1012.3
20260831033554 61 0 0.0 0.0 0.00 0.00 0.00 89 1012.5
20260831033355 61 0 0.0 0.0 0.00 0.00 0.00 89 1012.5
20260831033155 61 0 0.0 0.0 0.00 0.00 0.00 89 1012.5
20260831033009 61 0 0.0 0.0 0.00 0.00 0.00 89 1012.5
20260831032805 61 0 0.0 0.0 0.00 0.00 0.00 89 1012.6
20260831032615 61 0 0.0 0.0 0.00 0.00 0.00 88 1012.6
20260831032445 61 0 0.0 0.0 0.00 0.00 0.00 88 1012.6
20260831032420 61 0 0.0 0.0 0.00 0.00 0.00 88 1012.5
20260831032239 61 0 0.0 0.0 0.00 0.00 0.00 88 1012.6
20260831032050 61 0 0.0 0.0 0.00 0.00 0.00 88 1012.6
20260831031900 61 0 0.0 0.0 0.00 0.00 0.00 88 1012.6
20260831031710 61 0 0.0 0.0 0.00 0.00 0.00 88 1012.5
20260831031525 61 0 0.0 0.0 0.00 0.00 0.00 88 1012.6
20260831031330 61 0 0.0 0.0 0.00 0.00 0.00 88 1012.6
20260831031145 61 0 0.0 0.0 0.00 0.00 0.00 88 1012.5
20260831031005 61 0 0.0 0.0 0.00 0.00 0.00 89 1012.6
20260831030932 61 0 0.0 0.0 0.00 0.00 0.00 89 1012.5
20260831030807 61 0 0.0 0.0 0.00 0.00 0.00 89 1012.5
20260831030618 61 0 0.0 0.0 0.00 0.00 0.00 89 1012.6
20260831030420 61 0 0.0 0.0 0.00 0.00 0.00 89 1012.6
20260831030224 61 0 0.0 0.0 0.00 0.00 0.00 89 1012.5
20260831030030 61 0 0.0 0.0 0.00 0.00 0.00 89 1012.6
20260831025835 61 0 0.0 0.0 0.00 0.00 0.00 89 1012.6
20260831025650 61 0 0.0 0.0 0.00 0.00 0.00 88 1012.6
20260831025512 61 0 0.0 0.0 0.00 0.00 0.00 88 1012.7
20260831025315 61 0 0.0 0.0 0.00 0.00 0.00 89 1012.6
20260831025228 61 0 0.0 0.0 0.00 0.00 0.00 89 1012.8
20260831025130 61 0 0.0 0.0 0.00 0.00 0.00 89 1012.7
20260831024945 61 0 0.0 0.0 0.00 0.00 0.00 89 1012.6
20260831024755 61 0 0.0 0.0 0.00 0.00 0.00 89 1012.7
20260831024612 61 0 0.0 0.0 0.00 0.00 0.00 89 1012.6
20260831024438 61 248 0.0 0.0 0.00 0.00 0.00 89 1012.7
20260831024244 61 248 0.0 0.0 0.00 0.00 0.00 89 1012.6
20260831024055 61 248 0.0 1.0 0.00 0.00 0.00 89 1012.6
20260831023855 61 248 1.0 1.0 0.00 0.00 0.00 89 1012.5
20260831023710 61 248 1.0 1.0 0.00 0.00 0.00 89 1012.6
20260831023515 61 248 1.0 3.0 0.00 0.00 0.00 89 1012.5
20260831023433 61 248 1.0 3.0 0.00 0.00 0.00 89 1012.5
20260831023321 61 248 1.0 3.0 0.00 0.00 0.00 89 1012.6
20260831023135 61 248 1.0 3.0 0.00 0.00 0.00 89 1012.5
20260831022945 61 248 1.0 3.0 0.00 0.00 0.00 90 1012.5
20260831022755 61 248 1.0 3.0 0.00 0.00 0.00 90 1012.5
20260831022558 61 248 0.0 2.0 0.00 0.00 0.00 90 1012.5
20260831022409 61 248 0.0 2.0 0.00 0.00 0.00 90 1012.6
20260831022220 61 248 0.0 2.0 0.00 0.00 0.00 90 1012.6
20260831022035 61 248 0.0 2.0 0.00 0.00 0.00 90 1012.6
20260831021855 61 248 1.0 2.0 0.00 0.00 0.00 90 1012.7
20260831021817 61 248 1.0 2.0 0.00 0.00 0.00 90 1012.7
20260831021516 61 248 1.0 2.0 0.00 0.00 0.00 90 1012.7
20260831021337 61 248 1.0 2.0 0.00 0.00 0.00 90 1012.7
20260831021140 61 248 1.0 3.0 0.00 0.00 0.00 90 1012.7
20260831020950 61 248 1.0 3.0 0.00 0.00 0.00 91 1012.7
20260831020810 61 248 0.0 3.0 0.00 0.00 0.00 91 1012.7
20260831020610 61 0 0.0 0.0 0.00 0.00 0.00 90 1012.6
20260831020430 61 0 0.0 0.0 0.00 0.00 0.00 90 1012.7
20260831020243 60 0 0.0 0.0 0.00 0.00 0.00 90 1012.7
20260831020045 60 0 0.0 0.0 0.00 0.00 0.00 90 1012.7
20260831015850 60 0 0.0 0.0 0.00 0.00 0.00 90 1012.6
20260831015650 60 0 0.0 0.0 0.00 0.00 0.00 90 1012.7
20260831015500 60 0 0.0 0.0 0.00 0.00 0.00 91 1012.7
20260831015320 60 0 0.0 0.0 0.00 0.00 0.00 91 1012.7
20260831015140 60 0 0.0 0.0 0.00 0.00 0.00 90 1012.8
20260831015000 60 0 0.0 0.0 0.00 0.00 0.00 90 1012.8
20260831014810 60 0 0.0 0.0 0.00 0.00 0.00 90 1012.8
20260831014624 60 0 0.0 0.0 0.00 0.00 0.00 90 1012.8
20260831014431 60 0 0.0 0.0 0.00 0.00 0.00 90 1012.7
20260831014407 61 0 0.0 0.0 0.00 0.00 0.00 90 1012.7
20260831014255 61 248 0.0 0.0 0.00 0.00 0.00 90 1012.7
20260831014100 61 248 0.0 0.0 0.00 0.00 0.00 89 1012.8
20260831013919 61 248 0.0 0.0 0.00 0.00 0.00 89 1012.8
20260831013740 61 248 0.0 2.0 0.00 0.00 0.00 89 1012.7
20260831013550 61 248 0.0 2.0 0.00 0.00 0.00 89 1012.8
20260831013411 61 0 0.0 2.0 0.00 0.00 0.00 89 1012.9
20260831013220 60 0 0.0 0.0 0.00 0.00 0.00 89 1012.9
20260831013025 60 0 0.0 0.0 0.00 0.00 0.00 90 1012.9
20260831012830 60 0 0.0 0.0 0.00 0.00 0.00 89 1012.9
20260831012650 61 0 0.0 0.0 0.00 0.00 0.00 89 1013.0
20260831012514 61 0 0.0 0.0 0.00 0.00 0.00 89 1013.1
20260831012454 61 0 0.0 0.0 0.00 0.00 0.00 89 1013.1
20260831012306 61 0 0.0 0.0 0.00 0.00 0.00 89 1013.0
20260831012112 61 0 0.0 0.0 0.00 0.00 0.00 89 1013.0
20260831011930 61 0 0.0 0.0 0.00 0.00 0.00 88 1013.0
20260831011730 61 0 0.0 0.0 0.00 0.00 0.00 88 1013.0
20260831011538 61 0 0.0 0.0 0.00 0.00 0.00 88 1013.0
20260831011345 61 0 0.0 0.0 0.00 0.00 0.00 88 1013.0
20260831011200 61 0 0.0 0.0 0.00 0.00 0.00 88 1013.0
20260831011015 61 0 0.0 0.0 0.00 0.00 0.00 87 1013.0
20260831010820 61 0 0.0 0.0 0.00 0.00 0.00 88 1013.0
20260831010807 61 0 0.0 0.0 0.00 0.00 0.00 87 1013.0
20260831010635 62 0 0.0 0.0 0.00 0.00 0.00 87 1013.1
20260831010445 62 0 0.0 0.0 0.00 0.00 0.00 87 1013.1
20260831010245 62 0 0.0 0.0 0.00 0.00 0.00 87 1013.1
20260831010100 62 0 0.0 0.0 0.00 0.00 0.00 87 1013.1
20260831005905 62 0 0.0 0.0 0.00 0.00 0.00 86 1013.1
20260831005705 62 0 0.0 0.0 0.00 0.00 0.00 86 1013.1
20260831005345 62 0 0.0 0.0 0.00 0.00 0.00 87 1013.3
20260831005238 62 0 0.0 0.0 0.00 0.00 0.00 87 1013.2
20260831005150 62 0 0.0 0.0 0.00 0.00 0.00 87 1013.2
20260831004949 62 0 0.0 0.0 0.00 0.00 0.00 87 1013.2
20260831004750 62 0 0.0 0.0 0.00 0.00 0.00 87 1013.2
20260831004550 62 0 0.0 0.0 0.00 0.00 0.00 87 1013.3
20260831004410 62 0 0.0 0.0 0.00 0.00 0.00 87 1013.3
20260831004235 62 0 0.0 0.0 0.00 0.00 0.00 87 1013.3
20260831004041 62 0 0.0 0.0 0.00 0.00 0.00 87 1013.3
20260831003855 62 0 0.0 0.0 0.00 0.00 0.00 87 1013.4
20260831003659 62 0 0.0 0.0 0.00 0.00 0.00 87 1013.4
20260831003557 62 0 0.0 0.0 0.00 0.00 0.00 87 1013.3
20260831003519 62 0 0.0 0.0 0.00 0.00 0.00 87 1013.4
20260831003330 62 0 0.0 0.0 0.00 0.00 0.00 87 1013.4
20260831003135 62 0 0.0 0.0 0.00 0.00 0.00 87 1013.4
20260831002935 62 0 0.0 0.0 0.00 0.00 0.00 86 1013.4
20260831002737 62 0 0.0 2.0 0.00 0.00 0.00 86 1013.4
20260831002542 62 0 0.0 2.0 0.00 0.00 0.00 87 1013.5
20260831002350 62 0 0.0 2.0 0.00 0.00 0.00 87 1013.4
20260831002148 62 0 0.0 0.0 0.00 0.00 0.00 87 1013.5
20260831001948 62 0 0.0 0.0 0.00 0.00 0.00 86 1013.4
20260831001757 62 0 0.0 0.0 0.00 0.00 0.00 84 1013.4
20260831001632 62 0 0.0 0.0 0.00 0.00 0.00 84 1013.4
20260831001444 62 0 0.0 0.0 0.00 0.00 0.00 84 1013.4
20260831001240 62 0 0.0 0.0 0.00 0.00 0.00 84 1013.4
20260831001116 63 0 0.0 0.0 0.00 0.00 0.00 84 1013.4
20260831000904 63 0 0.0 0.0 0.00 0.00 0.00 84 1013.4
20260831000707 63 0 0.0 0.0 0.00 0.00 0.00 83 1013.4
20260831000515 63 0 0.0 0.0 0.00 0.00 0.00 83 1013.4
20260831000315 63 0 0.0 0.0 0.00 0.00 0.00 82 1013.4
20260831000135 63 0 0.0 0.0 0.00 0.00 0.00 82 1013.5
20260831000010 64 0 0.0 0.0 0.00 0.00 0.00 82 1013.5
20260830235935 64 0 0.0 0.0 0.00 0.00 0.00 82 1013.5
20260830235740 64 0 0.0 0.0 0.00 0.00 0.00 82 1013.4
20260830235550 64 0 0.0 0.0 0.00 0.00 0.00 81 1013.4
20260830235410 64 0 0.0 0.0 0.00 0.00 0.00 81 1013.4
20260830235230 65 0 0.0 0.0 0.00 0.00 0.00 80 1013.4
20260830235034 65 0 0.0 0.0 0.00 0.00 0.00 79 1013.4
20260830234840 65 0 0.0 0.0 0.00 0.00 0.00 79 1013.4
20260830234650 65 0 0.0 0.0 0.00 0.00 0.00 78 1013.5
20260830234510 65 0 0.0 0.0 0.00 0.00 0.00 78 1013.5
20260830234335 65 0 0.0 0.0 0.00 0.00 0.00 77 1013.5
20260830234237 65 248 0.0 0.0 0.00 0.00 0.00 77 1013.6
20260830234152 65 248 0.0 0.0 0.00 0.00 0.00 77 1013.6
20260830234000 65 248 0.0 1.0 0.00 0.00 0.00 77 1013.5
20260830233820 65 248 0.0 2.0 0.00 0.00 0.00 77 1013.4
20260830233634 65 248 0.0 2.0 0.00 0.00 0.00 77 1013.5
20260830233439 65 248 0.0 2.0 0.00 0.00 0.00 77 1013.5
20260830233244 65 248 0.0 0.0 0.00 0.00 0.00 76 1013.5
20260830233055 66 248 0.0 3.0 0.00 0.00 0.00 76 1013.4
20260830232900 66 248 0.0 3.0 0.00 0.00 0.00 76 1013.5
20260830232700 66 0 0.0 3.0 0.00 0.00 0.00 76 1013.5
20260830232505 66 248 0.0 0.0 0.00 0.00 0.00 76 1013.4
20260830232457 66 248 0.0 0.0 0.00 0.00 0.00 76 1013.5
20260830232311 66 248 0.0 0.0 0.00 0.00 0.00 76 1013.5
20260830232120 66 248 0.0 2.0 0.00 0.00 0.00 76 1013.5
20260830231940 66 248 0.0 2.0 0.00 0.00 0.00 76 1013.4
20260830231744 66 248 0.0 2.0 0.00 0.00 0.00 75 1013.4
20260830231600 66 248 0.0 2.0 0.00 0.00 0.00 75 1013.5
20260830231410 66 248 0.0 1.0 0.00 0.00 0.00 75 1013.4
20260830231220 66 248 1.0 2.0 0.00 0.00 0.00 75 1013.4
20260830231022 66 248 1.0 2.0 0.00 0.00 0.00 75 1013.5
20260830230830 66 248 1.0 3.0 0.00 0.00 0.00 75 1013.5
20260830230710 66 248 1.0 3.0 0.00 0.00 0.00 74 1013.5
20260830230644 66 248 1.0 4.0 0.00 0.00 0.00 74 1013.4
20260830230500 66 248 1.0 4.0 0.00 0.00 0.00 74 1013.4
20260830230310 66 248 1.0 4.0 0.00 0.00 0.00 74 1013.5
20260830230120 66 248 1.0 3.0 0.00 0.00 0.00 74 1013.4
20260830225935 66 248 1.0 4.0 0.00 0.00 0.00 74 1013.4
20260830225735 66 248 1.0 4.0 0.00 0.00 0.00 74 1013.4
20260830225544 66 248 1.0 4.0 0.00 0.00 0.00 75 1013.5
20260830225355 66 248 1.0 2.0 0.00 0.00 0.00 74 1013.5
20260830225153 66 248 2.0 3.0 0.00 0.00 0.00 74 1013.5
20260830225101 67 248 2.0 3.0 0.00 0.00 0.00 74 1013.5
20260830225004 67 248 2.0 3.0 0.00 0.00 0.00 74 1013.6
20260830224810 67 248 2.0 3.0 0.00 0.00 0.00 74 1013.6
20260830224615 67 248 2.0 3.0 0.00 0.00 0.00 74 1013.5
20260830224435 67 248 2.0 3.0 0.00 0.00 0.00 74 1013.6
20260830224236 67 248 2.0 3.0 0.00 0.00 0.00 74 1013.5
20260830224050 67 248 2.0 2.0 0.00 0.00 0.00 74 1013.5
20260830223904 67 248 2.0 4.0 0.00 0.00 0.00 74 1013.4
20260830223710 67 248 2.0 4.0 0.00 0.00 0.00 73 1013.4
20260830223524 67 248 2.0 5.0 0.00 0.00 0.00 73 1013.4
20260830223339 67 225 2.0 5.0 0.00 0.00 0.00 73 1013.3
20260830223201 67 248 2.0 5.0 0.00 0.00 0.00 73 1013.3
20260830223015 67 248 3.0 5.0 0.00 0.00 0.00 73 1013.4
20260830222830 67 248 3.0 5.0 0.00 0.00 0.00 73 1013.5
20260830222641 67 292 3.0 5.0 0.00 0.00 0.00 73 1013.5
20260830222455 67 292 3.0 6.0 0.00 0.00 0.00 73 1013.5
20260830222300 67 270 3.0 6.0 0.00 0.00 0.00 72 1013.5
20260830222120 67 248 3.0 5.0 0.00 0.00 0.00 72 1013.5
20260830221940 67 270 3.0 5.0 0.00 0.00 0.00 73 1013.4
20260830221922 67 248 3.0 5.0 0.00 0.00 0.00 73 1013.5
20260830221740 67 248 3.0 5.0 0.00 0.00 0.00 73 1013.6
20260830221550 67 202 3.0 4.0 0.00 0.00 0.00 73 1013.5
20260830221355 67 202 3.0 4.0 0.00 0.00 0.00 73 1013.6
20260830221215 67 202 3.0 4.0 0.00 0.00 0.00 73 1013.6
20260830221015 67 202 2.0 5.0 0.00 0.00 0.00 72 1013.6
20260830220831 67 248 2.0 4.0 0.00 0.00 0.00 73 1013.6
20260830220639 67 270 2.0 4.0 0.00 0.00 0.00 73 1013.5
20260830220503 67 270 2.0 4.0 0.00 0.00 0.00 73 1013.5
20260830220257 67 270 2.0 3.0 0.00 0.00 0.00 73 1013.6
20260830220124 67 270 2.0 3.0 0.00 0.00 0.00 73 1013.6
20260830215935 67 225 3.0 4.0 0.00 0.00 0.00 73 1013.6
20260830215740 67 225 3.0 5.0 0.00 0.00 0.00 72 1013.6
20260830215600 67 225 3.0 5.0 0.00 0.00 0.00 72 1013.5
20260830215404 67 248 2.0 5.0 0.00 0.00 0.00 72 1013.5
20260830215204 67 248 2.0 5.0 0.00 0.00 0.00 72 1013.4
20260830215024 67 248 2.0 5.0 0.00 0.00 0.00 72 1013.5
20260830214840 67 270 2.0 5.0 0.00 0.00 0.00 72 1013.5
20260830214704 67 202 2.0 5.0 0.00 0.00 0.00 72 1013.5
20260830214523 67 202 2.0 4.0 0.00 0.00 0.00 73 1013.5
20260830214412 67 202 2.0 4.0 0.00 0.00 0.00 73 1013.5
20260830214344 67 225 2.0 3.0 0.00 0.00 0.00 73 1013.5
20260830214152 67 225 2.0 4.0 0.00 0.00 0.00 73 1013.4
20260830213959 67 225 2.0 4.0 0.00 0.00 0.00 73 1013.5
20260830213810 67 225 1.0 4.0 0.00 0.00 0.00 73 1013.5
20260830213630 67 225 1.0 4.0 0.00 0.00 0.00 73 1013.4
20260830213444 67 225 1.0 4.0 0.00 0.00 0.00 73 1013.4
20260830213255 67 248 1.0 4.0 0.00 0.00 0.00 72 1013.4
20260830213115 67 248 1.0 4.0 0.00 0.00 0.00 72 1013.4
20260830212924 67 248 2.0 4.0 0.00 0.00 0.00 72 1013.4
20260830212742 67 248 2.0 5.0 0.00 0.00 0.00 72 1013.4
20260830212550 67 225 2.0 5.0 0.00 0.00 0.00 72 1013.4
20260830212528 67 225 2.0 5.0 0.00 0.00 0.00 72 1013.4
20260830212404 67 225 2.0 5.0 0.00 0.00 0.00 72 1013.4
20260830212220 67 225 2.0 4.0 0.00 0.00 0.00 72 1013.3
20260830212036 67 202 2.0 4.0 0.00 0.00 0.00 72 1013.4
20260830211844 67 292 2.0 3.0 0.00 0.00 0.00 72 1013.4
20260830211650 67 292 1.0 3.0 0.00 0.00 0.00 73 1013.3
20260830211500 67 292 1.0 3.0 0.00 0.00 0.00 74 1013.4
20260830211320 67 292 1.0 3.0 0.00 0.00 0.00 74 1013.4
20260830211125 67 292 1.0 2.0 0.00 0.00 0.00 75 1013.4
20260830210935 67 292 1.0 2.0 0.00 0.00 0.00 75 1013.4
20260830210849 67 292 0.0 2.0 0.00 0.00 0.00 75 1013.5
20260830210744 67 292 0.0 2.0 0.00 0.00 0.00 76 1013.4
20260830210604 67 292 0.0 2.0 0.00 0.00 0.00 76 1013.5
20260830210420 66 0 0.0 0.0 0.00 0.00 0.00 77 1013.4
20260830210235 66 0 0.0 0.0 0.00 0.00 0.00 76 1013.4
20260830210036 66 0 0.0 0.0 0.00 0.00 0.00 77 1013.4
20260830205851 66 0 0.0 0.0 0.00 0.00 0.00 76 1013.4
20260830205704 66 0 0.0 0.0 0.00 0.00 0.00 76 1013.4
20260830205510 65 0 0.0 0.0 0.00 0.00 0.00 76 1013.5
20260830205319 65 0 0.0 0.0 0.00 0.00 0.00 77 1013.4
20260830205158 65 0 0.0 0.0 0.00 0.00 0.00 78 1013.4
20260830205135 65 0 0.0 0.0 0.00 0.00 0.00 79 1013.5
20260830204944 65 0 0.0 0.0 0.00 0.00 0.00 80 1013.5
20260830204742 65 0 0.0 0.0 0.00 0.00 0.00 80 1013.4
20260830204605 65 0 0.0 0.0 0.00 0.00 0.00 80 1013.5
20260830204420 65 0 0.0 0.0 0.00 0.00 0.00 79 1013.5
20260830204220 65 0 0.0 0.0 0.00 0.00 0.00 79 1013.4
20260830204020 65 0 0.0 0.0 0.00 0.00 0.00 79 1013.4
20260830203844 65 0 0.0 0.0 0.00 0.00 0.00 79 1013.3
20260830203700 65 0 0.0 0.0 0.00 0.00 0.00 79 1013.4
20260830203504 65 0 0.0 0.0 0.00 0.00 0.00 78 1013.4
20260830203428 65 0 0.0 0.0 0.00 0.00 0.00 78 1013.3
20260830203315 65 0 0.0 0.0 0.00 0.00 0.00 78 1013.3
20260830203115 65 0 0.0 0.0 0.00 0.00 0.00 78 1013.4
20260830202924 65 0 0.0 0.0 0.00 0.00 0.00 78 1013.3
20260830202741 65 0 0.0 0.0 0.00 0.00 0.00 78 1013.5
20260830202543 65 0 0.0 0.0 0.00 0.00 0.00 78 1013.5
20260830202404 65 0 0.0 0.0 0.00 0.00 0.00 78 1013.5
20260830202220 65 0 0.0 0.0 0.00 0.00 0.00 78 1013.4
20260830202020 65 0 0.0 0.0 0.00 0.00 0.00 78 1013.4
20260830201902 65 0 0.0 0.0 0.00 0.00 0.00 78 1013.4
20260830201820 65 0 0.0 0.0 0.00 0.00 0.00 79 1013.4
20260830201620 65 0 0.0 0.0 0.00 0.00 0.00 79 1013.3
20260830201430 65 0 0.0 0.0 0.00 0.00 0.00 80 1013.4
20260830201245 65 0 0.0 0.0 0.00 0.00 0.00 79 1013.4
20260830201104 65 0 0.0 0.0 0.00 0.00 0.00 78 1013.4
20260830200920 65 0 0.0 0.0 0.00 0.00 0.00 78 1013.4
20260830200744 65 0 0.0 0.0 0.00 0.00 0.00 78 1013.4
20260830200604 65 0 0.0 0.0 0.00 0.00 0.00 78 1013.4
20260830200420 65 0 0.0 0.0 0.00 0.00 0.00 79 1013.3
20260830200240 65 0 0.0 0.0 0.00 0.00 0.00 79 1013.3
20260830200047 65 0 0.0 0.0 0.00 0.00 0.00 77 1013.4
20260830195912 65 0 0.0 0.0 0.00 0.00 0.00 77 1013.5
20260830195725 65 0 0.0 0.0 0.00 0.00 0.00 77 1013.4
20260830195539 66 0 0.0 0.0 0.00 0.00 0.00 76 1013.4
20260830195350 66 0 0.0 0.0 0.00 0.00 0.00 75 1013.4
20260830195201 66 0 0.0 0.0 0.00 0.00 0.00 75 1013.4
20260830195004 66 0 0.0 0.0 0.00 0.00 0.00 74 1013.4
20260830194804 66 0 0.0 0.0 0.00 0.00 0.00 74 1013.5
20260830194615 67 0 0.0 0.0 0.00 0.00 0.00 73 1013.4
20260830194425 67 0 0.0 0.0 0.00 0.00 0.00 73 1013.4
20260830194249 67 0 0.0 0.0 0.00 0.00 0.00 73 1013.4
20260830194227 67 0 0.0 0.0 0.00 0.00 0.00 73 1013.4
20260830194043 67 0 0.0 0.0 0.00 0.00 0.00 73 1013.4
20260830193855 67 0 0.0 0.0 0.00 0.00 0.00 73 1013.4
20260830193704 67 0 0.0 0.0 0.00 0.00 0.00 73 1013.4
20260830193511 67 0 0.0 0.0 0.00 0.00 0.00 72 1013.4
20260830193320 67 0 0.0 0.0 0.00 0.00 0.00 72 1013.3
20260830193120 68 0 0.0 0.0 0.00 0.00 0.00 72 1013.3
20260830192930 68 0 0.0 0.0 0.00 0.00 0.00 72 1013.3
20260830192745 68 0 0.0 0.0 0.00 0.00 0.00 71 1013.2
20260830192623 68 0 0.0 0.0 0.00 0.00 0.00 70 1013.3
20260830192550 68 0 0.0 0.0 0.00 0.00 0.00 70 1013.3
20260830192410 69 0 0.0 0.0 0.00 0.00 0.00 69 1013.3
20260830192220 69 292 0.0 0.0 0.00 0.00 0.00 69 1013.3
20260830192020 69 292 0.0 0.0 0.00 0.00 0.00 67 1013.2
20260830191824 69 292 0.0 0.0 0.00 0.00 0.00 67 1013.3
20260830191644 70 292 0.0 0.0 0.00 0.00 0.00 67 1013.3
20260830191501 70 292 0.0 0.0 0.00 0.00 0.00 66 1013.3
20260830191315 70 292 0.0 0.0 0.00 0.00 0.00 66 1013.3
20260830191121 70 292 1.0 0.0 0.00 0.00 0.00 66 1013.2
20260830190940 70 292 1.0 0.0 0.00 0.00 0.00 65 1013.2
20260830190755 71 292 1.0 0.0 0.00 0.00 0.00 65 1013.2
20260830190738 71 292 1.0 3.0 0.00 0.00 0.00 65 1013.2
20260830190609 71 292 1.0 3.0 0.00 0.00 0.00 65 1013.2
20260830190424 71 292 2.0 3.0 0.00 0.00 0.00 64 1013.2
20260830190240 71 292 2.0 3.0 0.00 0.00 0.00 64 1013.2
20260830190100 71 292 2.0 3.0 0.00 0.00 0.00 64 1013.1
20260830185900 71 292 2.0 3.0 0.00 0.00 0.00 64 1013.1
20260830185719 71 292 2.0 3.0 0.00 0.00 0.00 63 1013.1
20260830185539 71 292 2.0 3.0 0.00 0.00 0.00 63 1013.1
20260830185350 71 292 2.0 5.0 0.00 0.00 0.00 63 1013.1
20260830185205 71 292 2.0 5.0 0.00 0.00 0.00 63 1013.1
20260830185015 72 315 2.0 5.0 0.00 0.00 0.00 62 1013.1
20260830184928 72 292 2.0 5.0 0.00 0.00 0.00 62 1013.1
20260830184815 72 292 2.0 5.0 0.00 0.00 0.00 62 1013.1
20260830184615 72 292 2.0 5.0 0.00 0.00 0.00 61 1013.1
20260830184420 72 248 3.0 4.0 0.00 0.00 0.00 62 1013.1
20260830184230 72 248 3.0 6.0 0.00 0.00 0.00 61 1013.0
20260830184043 72 270 3.0 8.0 0.00 0.00 0.00 61 1013.0
20260830183905 72 270 4.0 8.0 0.00 0.00 0.00 61 1013.0
20260830183730 72 292 4.0 8.0 0.00 0.00 0.00 60 1013.0
20260830183550 72 292 5.0 8.0 0.00 0.00 0.00 60 1013.0
20260830183410 72 248 4.0 8.0 0.00 0.00 0.00 60 1012.9
20260830183248 72 292 4.0 8.0 0.00 0.00 0.00 60 1013.0
20260830183215 72 292 4.0 8.0 0.00 0.00 0.00 60 1013.0
20260830183020 72 225 5.0 8.0 0.00 0.00 0.00 60 1013.0
20260830182830 72 270 5.0 8.0 0.00 0.00 0.00 60 1012.9
20260830182640 72 315 5.0 8.0 0.00 0.00 0.00 59 1013.0
20260830182500 72 225 4.0 8.0 0.00 0.00 0.00 60 1012.9
20260830182315 72 225 4.0 8.0 0.00 0.00 0.00 59 1013.0
20260830182120 72 292 4.0 8.0 0.00 0.00 0.00 59 1012.9
20260830181935 73 270 5.0 8.0 0.00 0.00 0.00 59 1013.0
20260830181745 73 225 4.0 6.0 0.00 0.00 0.00 59 1012.9
20260830181722 73 248 4.0 6.0 0.00 0.00 0.00 59 1012.9
20260830181555 73 248 5.0 8.0 0.00 0.00 0.00 59 1012.9
20260830181408 73 225 5.0 8.0 0.00 0.00 0.00 59 1012.8
20260830181210 73 270 5.0 8.0 0.00 0.00 0.00 58 1012.8
20260830181030 73 270 5.0 9.0 0.00 0.00 0.00 59 1012.7
20260830180840 73 248 5.0 9.0 0.00 0.00 0.00 58 1012.7
20260830180644 73 248 6.0 9.0 0.00 0.00 0.00 58 1012.7
20260830180503 73 202 6.0 9.0 0.00 0.00 0.00 58 1012.6
20260830180320 73 248 6.0 9.0 0.00 0.00 0.00 58 1012.7
20260830180138 73 202 6.0 9.0 0.00 0.00 0.00 58 1012.7
20260830180108 73 248 6.0 9.0 0.00 0.00 0.00 58 1012.6
20260830175940 73 248 6.0 8.0 0.00 0.00 0.00 58 1012.6
20260830175748 73 292 5.0 7.0 0.00 0.00 0.00 58 1012.6
20260830175558 73 248 5.0 7.0 0.00 0.00 0.00 58 1012.6
20260830175410 73 248 5.0 7.0 0.00 0.00 0.00 57 1012.6
20260830175224 73 202 5.0 7.0 0.00 0.00 0.00 57 1012.5
20260830175030 73 225 5.0 7.0 0.00 0.00 0.00 57 1012.5
20260830174829 74 225 5.0 7.0 0.00 0.00 0.00 57 1012.4
20260830174644 74 202 5.0 7.0 0.00 0.00 0.00 57 1012.5
20260830174452 74 248 5.0 8.0 0.00 0.00 0.00 57 1012.4
20260830174431 74 248 5.0 8.0 0.00 0.00 0.00 57 1012.4
20260830174325 74 248 5.0 8.0 0.00 0.00 0.00 57 1012.4
20260830174259 74 248 5.0 8.0 0.00 0.00 0.00 57 1012.4
20260830174111 74 248 6.0 8.0 0.00 0.00 0.00 56 1012.4
20260830173924 74 202 6.0 8.0 0.00 0.00 0.00 56 1012.4
20260830173725 74 270 6.0 8.0 0.00 0.00 0.00 56 1012.4
20260830173543 74 225 6.0 8.0 0.00 0.00 0.00 56 1012.3
20260830173355 74 270 6.0 7.0 0.00 0.00 0.00 56 1012.4
20260830173200 74 225 6.0 8.0 0.00 0.00 0.00 55 1012.4
20260830173002 74 248 6.0 8.0 0.00 0.00 0.00 55 1012.3
20260830172815 74 248 6.0 8.0 0.00 0.00 0.00 55 1012.4
20260830172620 74 248 6.0 8.0 0.00 0.00 0.00 55 1012.3
20260830172430 74 225 6.0 9.0 0.00 0.00 0.00 55 1012.4
20260830172230 75 292 6.0 10.0 0.00 0.00 0.00 54 1012.3
20260830172035 75 225 6.0 10.0 0.00 0.00 0.00 54 1012.3
20260830171845 75 225 6.0 10.0 0.00 0.00 0.00 54 1012.3
20260830171653 75 225 6.0 10.0 0.00 0.00 0.00 54 1012.3
20260830171510 75 292 6.0 10.0 0.00 0.00 0.00 54 1012.4
20260830171320 75 248 6.0 10.0 0.00 0.00 0.00 53 1012.3
20260830171145 75 248 6.0 10.0 0.00 0.00 0.00 53 1012.4
20260830171000 75 270 6.0 10.0 0.00 0.00 0.00 53 1012.4
20260830170937 75 270 6.0 10.0 0.00 0.00 0.00 53 1012.4
20260830170801 75 225 7.0 10.0 0.00 0.00 0.00 53 1012.3
20260830170615 75 270 7.0 10.0 0.00 0.00 0.00 53 1012.4
20260830170440 75 202 7.0 10.0 0.00 0.00 0.00 53 1012.3
20260830170255 75 248 6.0 11.0 0.00 0.00 0.00 53 1012.3
20260830170106 75 292 7.0 11.0 0.00 0.00 0.00 52 1012.2
20260830165919 75 248 7.0 11.0 0.00 0.00 0.00 52 1012.2
20260830165725 75 292 7.0 11.0 0.00 0.00 0.00 52 1012.2
20260830165530 75 248 7.0 11.0 0.00 0.00 0.00 52 1012.2
20260830165345 75 270 8.0 13.0 0.00 0.00 0.00 52 1012.2
20260830165227 75 225 8.0 13.0 0.00 0.00 0.00 51 1012.1
20260830165210 76 270 8.0 13.0 0.00 0.00 0.00 51 1012.1
20260830165020 76 202 7.0 14.0 0.00 0.00 0.00 51 1012.1
20260830164830 76 270 7.0 15.0 0.00 0.00 0.00 51 1012.1
20260830164639 76 248 6.0 15.0 0.00 0.00 0.00 51 1012.1
20260830164450 76 248 6.0 10.0 0.00 0.00 0.00 51 1012.0
20260830164315 76 225 5.0 10.0 0.00 0.00 0.00 50 1012.1
20260830164120 76 225 5.0 10.0 0.00 0.00 0.00 50 1012.1
20260830163930 76 248 5.0 12.0 0.00 0.00 0.00 50 1012.1
20260830163731 76 338 5.0 12.0 0.00 0.00 0.00 50 1012.0
20260830163543 76 202 5.0 6.0 0.00 0.00 0.00 50 1012.0
20260830163327 77 292 5.0 6.0 0.00 0.00 0.00 49 1012.0
20260830163150 77 225 5.0 6.0 0.00 0.00 0.00 49 1012.0
20260830162947 77 202 5.0 10.0 0.00 0.00 0.00 49 1012.0
20260830162750 77 180 5.0 10.0 0.00 0.00 0.00 49 1011.9
20260830162605 77 248 6.0 10.0 0.00 0.00 0.00 49 1011.9
20260830162418 77 270 6.0 7.0 0.00 0.00 0.00 49 1011.9
20260830162240 77 270 6.0 9.0 0.00 0.00 0.00 49 1011.8
20260830162100 77 292 7.0 9.0 0.00 0.00 0.00 49 1011.8
20260830161915 77 248 7.0 10.0 0.00 0.00 0.00 49 1011.9
20260830161720 77 248 8.0 11.0 0.00 0.00 0.00 49 1011.9
20260830161618 78 270 8.0 11.0 0.00 0.00 0.00 49 1011.9
20260830161543 78 225 8.0 11.0 0.00 0.00 0.00 49 1011.8
20260830161355 78 248 8.0 11.0 0.00 0.00 0.00 49 1011.7
20260830161200 78 315 8.0 12.0 0.00 0.00 0.00 49 1011.9
20260830161010 79 270 7.0 13.0 0.00 0.00 0.00 48 1011.8
20260830160810 79 248 7.0 13.0 0.00 0.00 0.00 47 1011.7
20260830160615 79 248 7.0 13.0 0.00 0.00 0.00 47 1011.7
20260830160435 79 202 7.0 10.0 0.00 0.00 0.00 45 1011.7
20260830160255 79 202 7.0 11.0 0.00 0.00 0.00 46 1011.7
20260830160056 78 248 7.0 16.0 0.00 0.00 0.00 45 1011.7
20260830155913 78 292 7.0 16.0 0.00 0.00 0.00 46 1011.6
20260830155838 78 248 8.0 16.0 0.00 0.00 0.00 46 1011.7
20260830155715 78 202 8.0 16.0 0.00 0.00 0.00 45 1011.7
20260830155520 78 292 7.0 10.0 0.00 0.00 0.00 46 1011.7
20260830155325 78 292 7.0 10.0 0.00 0.00 0.00 46 1011.7
20260830155145 78 270 8.0 10.0 0.00 0.00 0.00 46 1011.7
20260830155005 79 270 8.0 15.0 0.00 0.00 0.00 46 1011.7
20260830154823 79 292 8.0 12.0 0.00 0.00 0.00 46 1011.8
20260830154635 79 292 7.0 12.0 0.00 0.00 0.00 46 1011.7
20260830154445 79 338 8.0 12.0 0.00 0.00 0.00 46 1011.6
20260830154250 79 292 8.0 13.0 0.00 0.00 0.00 46 1011.7
20260830154100 79 292 8.0 13.0 0.00 0.00 0.00 45 1011.6
20260830154047 79 292 8.0 13.0 0.00 0.00 0.00 45 1011.6
20260830153917 79 270 8.0 13.0 0.00 0.00 0.00 45 1011.7
20260830153734 79 292 8.0 13.0 0.00 0.00 0.00 45 1011.6
20260830153558 79 225 8.0 13.0 0.00 0.00 0.00 45 1011.7
20260830153405 79 270 8.0 16.0 0.00 0.00 0.00 44 1011.6
20260830153216 79 248 8.0 16.0 0.00 0.00 0.00 44 1011.7
20260830153030 79 248 8.0 16.0 0.00 0.00 0.00 45 1011.6
20260830152835 79 270 8.0 15.0 0.00 0.00 0.00 45 1011.5
20260830152645 79 225 8.0 15.0 0.00 0.00 0.00 45 1011.6
20260830152534 79 225 8.0 15.0 0.00 0.00 0.00 45 1011.5
20260830152450 80 270 8.0 15.0 0.00 0.00 0.00 44 1011.5
20260830152311 80 270 8.0 13.0 0.00 0.00 0.00 44 1011.5
20260830152135 80 270 8.0 13.0 0.00 0.00 0.00 44 1011.6
20260830151945 80 248 8.0 15.0 0.00 0.00 0.00 44 1011.6
20260830151805 80 270 8.0 15.0 0.00 0.00 0.00 44 1011.6
20260830151620 80 292 8.0 15.0 0.00 0.00 0.00 44 1011.6
20260830151425 80 248 8.0 15.0 0.00 0.00 0.00 44 1011.6
20260830151235 80 270 8.0 15.0 0.00 0.00 0.00 44 1011.5
20260830151035 80 225 8.0 16.0 0.00 0.00 0.00 44 1011.5
20260830150932 80 248 9.0 16.0 0.00 0.00 0.00 44 1011.6
20260830150850 80 225 8.0 16.0 0.00 0.00 0.00 44 1011.6
20260830150705 79 225 8.0 16.0 0.00 0.00 0.00 43 1011.4
20260830150522 79 292 8.0 15.0 0.00 0.00 0.00 44 1011.5
20260830150343 80 270 8.0 15.0 0.00 0.00 0.00 44 1011.6
20260830150146 80 270 8.0 15.0 0.00 0.00 0.00 44 1011.5
20260830150005 80 270 7.0 11.0 0.00 0.00 0.00 44 1011.3
20260830145825 80 270 7.0 11.0 0.00 0.00 0.00 44 1011.5
20260830145633 80 292 7.0 11.0 0.00 0.00 0.00 45 1011.5
20260830145445 81 248 7.0 11.0 0.00 0.00 0.00 45 1011.5
20260830145337 81 270 7.0 10.0 0.00 0.00 0.00 44 1011.5
20260830145257 81 270 7.0 11.0 0.00 0.00 0.00 45 1011.5
20260830145100 81 248 7.0 11.0 0.00 0.00 0.00 44 1011.5
20260830144905 81 292 8.0 11.0 0.00 0.00 0.00 43 1011.5
20260830144705 81 292 8.0 11.0 0.00 0.00 0.00 42 1011.5
20260830144515 81 248 8.0 17.0 0.00 0.00 0.00 42 1011.4
20260830144330 80 225 8.0 17.0 0.00 0.00 0.00 43 1011.4
20260830144145 80 225 8.0 13.0 0.00 0.00 0.00 42 1011.3
20260830143950 80 225 8.0 14.0 0.00 0.00 0.00 42 1011.4
20260830143801 80 225 9.0 15.0 0.00 0.00 0.00 43 1011.4
20260830143718 80 248 9.0 15.0 0.00 0.00 0.00 43 1011.4
20260830143615 80 248 9.0 15.0 0.00 0.00 0.00 43 1011.4
20260830143432 80 270 9.0 15.0 0.00 0.00 0.00 42 1011.3
20260830143214 80 248 9.0 15.0 0.00 0.00 0.00 42 1011.4
20260830143030 80 202 9.0 15.0 0.00 0.00 0.00 42 1011.4
20260830142850 80 292 9.0 15.0 0.00 0.00 0.00 42 1011.4
20260830142704 80 225 9.0 15.0 0.00 0.00 0.00 42 1011.4
20260830142516 80 202 9.0 15.0 0.00 0.00 0.00 42 1011.5
20260830142323 80 292 8.0 15.0 0.00 0.00 0.00 42 1011.4
20260830142140 80 202 8.0 13.0 0.00 0.00 0.00 42 1011.4
20260830141951 80 248 9.0 13.0 0.00 0.00 0.00 42 1011.3
20260830141759 80 270 8.0 12.0 0.00 0.00 0.00 42 1011.3
20260830141610 80 270 9.0 15.0 0.00 0.00 0.00 42 1011.2
20260830141411 80 292 9.0 15.0 0.00 0.00 0.00 42 1011.2
20260830141231 80 225 9.0 15.0 0.00 0.00 0.00 43 1011.2
20260830141040 80 248 9.0 17.0 0.00 0.00 0.00 42 1011.3
20260830140845 80 270 10.0 17.0 0.00 0.00 0.00 43 1011.2
20260830140655 80 292 9.0 17.0 0.00 0.00 0.00 43 1011.3
20260830140515 80 248 9.0 17.0 0.00 0.00 0.00 43 1011.2
20260830140315 80 292 9.0 17.0 0.00 0.00 0.00 43 1011.2
20260830140252 80 225 9.0 17.0 0.00 0.00 0.00 43 1011.2
20260830140120 80 270 10.0 16.0 0.00 0.00 0.00 43 1011.2
20260830135940 80 225 10.0 16.0 0.00 0.00 0.00 43 1011.2
20260830135745 80 225 11.0 16.0 0.00 0.00 0.00 43 1011.2
20260830135605 80 248 10.0 16.0 0.00 0.00 0.00 44 1011.2
20260830135420 80 248 11.0 16.0 0.00 0.00 0.00 43 1011.1
20260830135239 80 248 11.0 16.0 0.00 0.00 0.00 43 1011.2
20260830135040 80 202 11.0 20.0 0.00 0.00 0.00 44 1011.1
20260830134837 80 270 10.0 20.0 0.00 0.00 0.00 44 1011.3
20260830134734 80 225 9.0 20.0 0.00 0.00 0.00 44 1011.2
20260830134655 80 248 9.0 16.0 0.00 0.00 0.00 44 1011.2
20260830134502 80 225 8.0 16.0 0.00 0.00 0.00 44 1011.3
20260830134305 80 248 8.0 13.0 0.00 0.00 0.00 45 1011.3
20260830134120 80 270 8.0 13.0 0.00 0.00 0.00 45 1011.3
20260830133920 81 202 8.0 11.0 0.00 0.00 0.00 45 1011.2
20260830133720 81 292 8.0 11.0 0.00 0.00 0.00 45 1011.1
20260830133538 80 248 8.0 12.0 0.00 0.00 0.00 44 1011.1
20260830133400 80 248 8.0 12.0 0.00 0.00 0.00 45 1011.1
20260830133222 80 270 7.0 12.0 0.00 0.00 0.00 44 1011.2
20260830133031 80 292 7.0 10.0 0.00 0.00 0.00 45 1011.0
20260830132840 80 248 7.0 10.0 0.00 0.00 0.00 45 1010.9
20260830132707 80 248 7.0 10.0 0.00 0.00 0.00 44 1011.0
20260830132510 80 248 7.0 10.0 0.00 0.00 0.00 45 1010.9
20260830132311 79 315 7.0 10.0 0.00 0.00 0.00 46 1010.9
20260830132126 79 225 8.0 12.0 0.00 0.00 0.00 47 1010.8
20260830131940 79 248 8.0 14.0 0.00 0.00 0.00 47 1010.9
20260830131740 79 248 8.0 14.0 0.00 0.00 0.00 47 1010.8
20260830131555 79 270 8.0 14.0 0.00 0.00 0.00 47 1010.8
20260830131405 79 248 7.0 14.0 0.00 0.00 0.00 47 1010.8
20260830131222 79 270 7.0 10.0 0.00 0.00 0.00 47 1010.8
20260830131148 79 202 7.0 10.0 0.00 0.00 0.00 47 1010.8
20260830131030 79 292 7.0 10.0 0.00 0.00 0.00 48 1010.8
20260830130845 79 270 7.0 10.0 0.00 0.00 0.00 49 1010.9
20260830130650 79 270 7.0 11.0 0.00 0.00 0.00 50 1010.9
20260830130515 79 225 8.0 13.0 0.00 0.00 0.00 50 1010.9
20260830130330 79 270 9.0 13.0 0.00 0.00 0.00 50 1010.9
20260830130140 80 248 9.0 13.0 0.00 0.00 0.00 50 1010.8
20260830125940 80 248 9.0 13.0 0.00 0.00 0.00 49 1010.8
20260830125800 80 248 9.0 13.0 0.00 0.00 0.00 49 1010.8
20260830125610 80 225 9.0 13.0 0.00 0.00 0.00 48 1010.7
20260830125532 80 270 9.0 13.0 0.00 0.00 0.00 48 1010.8
20260830125420 80 248 9.0 13.0 0.00 0.00 0.00 47 1010.7
20260830125235 80 292 9.0 15.0 0.00 0.00 0.00 47 1010.8
20260830125041 80 225 9.0 15.0 0.00 0.00 0.00 47 1010.7
20260830124907 80 202 9.0 15.0 0.00 0.00 0.00 46 1010.7
20260830124720 80 202 9.0 12.0 0.00 0.00 0.00 47 1010.7
20260830124535 80 225 9.0 16.0 0.00 0.00 0.00 48 1010.7
20260830124356 80 248 9.0 16.0 0.00 0.00 0.00 48 1010.6
20260830124215 80 225 9.0 16.0 0.00 0.00 0.00 49 1010.8
20260830124036 80 225 8.0 16.0 0.00 0.00 0.00 48 1010.8
20260830123850 80 248 8.0 12.0 0.00 0.00 0.00 48 1010.7
20260830123838 80 270 8.0 12.0 0.00 0.00 0.00 48 1010.7
20260830123703 79 248 8.0 11.0 0.00 0.00 0.00 49 1010.7
20260830123520 79 270 8.0 11.0 0.00 0.00 0.00 50 1010.7
20260830123334 79 202 8.0 11.0 0.00 0.00 0.00 50 1010.7
20260830123135 79 225 8.0 11.0 0.00 0.00 0.00 52 1010.8
20260830122955 79 225 8.0 13.0 0.00 0.00 0.00 51 1010.7
20260830122800 79 248 8.0 13.0 0.00 0.00 0.00 51 1010.7
20260830122601 79 248 8.0 13.0 0.00 0.00 0.00 52 1010.7
20260830122412 79 248 8.0 11.0 0.00 0.00 0.00 51 1010.7
20260830122214 78 225 8.0 11.0 0.00 0.00 0.00 51 1010.7
20260830122029 78 225 8.0 14.0 0.00 0.00 0.00 51 1010.8
20260830121952 78 225 8.0 14.0 0.00 0.00 0.00 51 1010.7
20260830121835 78 225 8.0 14.0 0.00 0.00 0.00 52 1010.8
20260830121640 78 248 8.0 14.0 0.00 0.00 0.00 53 1010.8
20260830121455 78 248 8.0 13.0 0.00 0.00 0.00 53 1010.8
20260830121305 79 225 8.0 13.0 0.00 0.00 0.00 52 1010.7
20260830121105 78 225 8.0 13.0 0.00 0.00 0.00 52 1010.6
20260830120920 78 248 8.0 17.0 0.00 0.00 0.00 52 1010.7
20260830120730 78 225 8.0 17.0 0.00 0.00 0.00 52 1010.6
20260830120540 78 248 8.0 17.0 0.00 0.00 0.00 52 1010.7
20260830120345 78 248 8.0 17.0 0.00 0.00 0.00 52 1010.7
20260830120307 78 248 8.0 17.0 0.00 0.00 0.00 52 1010.7
20260830120152 78 225 7.0 10.0 0.00 0.00 0.00 54 1010.6
20260830120005 77 225 8.0 13.0 0.00 0.00 0.00 53 1010.6
20260830115820 77 270 8.0 13.0 0.00 0.00 0.00 55 1010.6
20260830115620 77 202 8.0 13.0 0.00 0.00 0.00 55 1010.7
20260830115440 77 292 8.0 13.0 0.00 0.00 0.00 55 1010.6
20260830115250 77 292 8.0 13.0 0.00 0.00 0.00 56 1010.7
20260830115101 77 292 8.0 13.0 0.00 0.00 0.00 55 1010.7
20260830114617 77 202 8.0 13.0 0.00 0.00 0.00 56 1010.6
20260830113103 77 248 8.0 15.0 0.00 0.00 0.00 56 1010.6
20260830111235 77 225 8.0 11.0 0.00 0.00 0.00 58 1010.4
20260830111042 77 248 8.0 11.0 0.00 0.00 0.00 58 1010.6
20260830110900 77 248 8.0 11.0 0.00 0.00 0.00 58 1010.6
20260830110720 77 202 8.0 11.0 0.00 0.00 0.00 58 1010.6
20260830110535 77 248 7.0 11.0 0.00 0.00 0.00 58 1010.5
20260830110356 77 202 8.0 11.0 0.00 0.00 0.00 58 1010.4
20260830110204 77 292 8.0 11.0 0.00 0.00 0.00 57 1010.5
20260830110025 77 180 7.0 11.0 0.00 0.00 0.00 58 1010.5
20260830105845 77 270 7.0 15.0 0.00 0.00 0.00 59 1010.5
20260830105645 77 202 7.0 15.0 0.00 0.00 0.00 58 1010.5
20260830105505 77 202 8.0 15.0 0.00 0.00 0.00 58 1010.5
20260830105408 77 202 7.0 12.0 0.00 0.00 0.00 58 1010.5
20260830105306 77 225 7.0 11.0 0.00 0.00 0.00 57 1010.5
20260830105110 77 248 7.0 13.0 0.00 0.00 0.00 57 1010.5
20260830104920 77 225 8.0 13.0 0.00 0.00 0.00 56 1010.6
20260830104735 77 180 8.0 13.0 0.00 0.00 0.00 56 1010.6
20260830104545 77 248 8.0 13.0 0.00 0.00 0.00 57 1010.6
20260830104351 77 202 7.0 10.0 0.00 0.00 0.00 56 1010.6
20260830104200 77 270 8.0 11.0 0.00 0.00 0.00 56 1010.6
20260830104000 77 202 8.0 11.0 0.00 0.00 0.00 56 1010.5
20260830103816 77 292 8.0 13.0 0.00 0.00 0.00 56 1010.6
20260830103630 77 248 8.0 13.0 0.00 0.00 0.00 56 1010.6
20260830103445 77 248 8.0 13.0 0.00 0.00 0.00 55 1010.6
20260830103305 77 180 8.0 12.0 0.00 0.00 0.00 55 1010.7
20260830103115 77 225 8.0 12.0 0.00 0.00 0.00 56 1010.6
20260830102918 77 202 8.0 12.0 0.00 0.00 0.00 56 1010.6
20260830102720 77 225 8.0 12.0 0.00 0.00 0.00 56 1010.6
20260830102535 77 270 8.0 12.0 0.00 0.00 0.00 56 1010.7
20260830102350 77 225 8.0 14.0 0.00 0.00 0.00 56 1010.7
20260830102210 78 270 8.0 14.0 0.00 0.00 0.00 56 1010.7
20260830102036 78 248 8.0 13.0 0.00 0.00 0.00 55 1010.6
20260830102023 78 248 8.0 13.0 0.00 0.00 0.00 55 1010.6
20260830101830 78 248 8.0 13.0 0.00 0.00 0.00 54 1010.6
20260830101635 78 248 8.0 13.0 0.00 0.00 0.00 54 1010.6
20260830101445 78 225 8.0 11.0 0.00 0.00 0.00 54 1010.5
20260830101255 78 202 8.0 11.0 0.00 0.00 0.00 54 1010.6
20260830101105 78 225 8.0 11.0 0.00 0.00 0.00 54 1010.6
20260830100903 78 248 8.0 11.0 0.00 0.00 0.00 55 1010.6
20260830100703 78 270 8.0 11.0 0.00 0.00 0.00 56 1010.6
20260830100515 78 225 7.0 11.0 0.00 0.00 0.00 55 1010.6
20260830100339 78 225 7.0 13.0 0.00 0.00 0.00 55 1010.5
20260830100233 78 270 7.0 13.0 0.00 0.00 0.00 55 1010.6
20260830100143 78 225 7.0 13.0 0.00 0.00 0.00 56 1010.6
20260830095950 78 225 7.0 13.0 0.00 0.00 0.00 55 1010.5
20260830095750 78 202 7.0 11.0 0.00 0.00 0.00 55 1010.5
20260830095610 78 270 7.0 11.0 0.00 0.00 0.00 56 1010.5
20260830095425 77 292 7.0 12.0 0.00 0.00 0.00 55 1010.4
20260830095235 77 180 7.0 12.0 0.00 0.00 0.00 56 1010.5
20260830095035 77 270 7.0 12.0 0.00 0.00 0.00 56 1010.5
20260830094845 77 270 6.0 10.0 0.00 0.00 0.00 57 1010.6
20260830094655 77 225 6.0 10.0 0.00 0.00 0.00 57 1010.6
20260830094603 77 225 6.0 10.0 0.00 0.00 0.00 57 1010.5
20260830094455 77 202 7.0 10.0 0.00 0.00 0.00 57 1010.6
20260830094320 77 225 7.0 9.0 0.00 0.00 0.00 58 1010.6
20260830094128 77 270 7.0 12.0 0.00 0.00 0.00 59 1010.6
20260830093945 76 248 7.0 12.0 0.00 0.00 0.00 58 1010.6
20260830093800 76 225 8.0 12.0 0.00 0.00 0.00 59 1010.5
20260830093610 76 225 8.0 10.0 0.00 0.00 0.00 58 1010.7
20260830093410 76 292 8.0 10.0 0.00 0.00 0.00 58 1010.6
20260830093230 76 248 7.0 13.0 0.00 0.00 0.00 59 1010.7
20260830093043 76 248 7.0 13.0 0.00 0.00 0.00 59 1010.7
20260830092855 76 248 7.0 13.0 0.00 0.00 0.00 61 1010.8
20260830092704 75 202 8.0 13.0 0.00 0.00 0.00 60 1010.8
20260830092505 75 180 7.0 11.0 0.00 0.00 0.00 60 1010.8
20260830092309 75 225 7.0 13.0 0.00 0.00 0.00 60 1010.7
20260830092110 75 202 8.0 13.0 0.00 0.00 0.00 60 1010.8
20260830091915 75 248 8.0 13.0 0.00 0.00 0.00 60 1010.9
20260830091728 75 270 8.0 11.0 0.00 0.00 0.00 60 1010.9
20260830091535 76 292 8.0 13.0 0.00 0.00 0.00 61 1010.8
20260830091452 76 225 8.0 13.0 0.00 0.00 0.00 61 1010.8
20260830091336 76 202 8.0 13.0 0.00 0.00 0.00 61 1010.8
20260830091139 76 225 8.0 13.0 0.00 0.00 0.00 60 1010.7
20260830090936 76 270 7.0 13.0 0.00 0.00 0.00 60 1010.8
20260830090745 76 202 7.0 12.0 0.00 0.00 0.00 60 1010.7
20260830090545 76 202 7.0 12.0 0.00 0.00 0.00 60 1010.7
20260830090400 76 270 7.0 11.0 0.00 0.00 0.00 61 1010.8
20260830090210 75 270 7.0 11.0 0.00 0.00 0.00 60 1010.7
20260830090025 75 225 7.0 11.0 0.00 0.00 0.00 59 1010.7
20260830085845 75 135 7.0 11.0 0.00 0.00 0.00 60 1010.8
20260830085732 75 315 7.0 11.0 0.00 0.00 0.00 60 1010.8
20260830085645 75 225 7.0 11.0 0.00 0.00 0.00 61 1010.8
20260830085455 75 248 7.0 11.0 0.00 0.00 0.00 62 1010.7
20260830085255 75 248 8.0 10.0 0.00 0.00 0.00 62 1010.7
20260830085110 75 248 8.0 12.0 0.00 0.00 0.00 61 1010.7
20260830084910 75 225 7.0 13.0 0.00 0.00 0.00 62 1010.8
20260830084727 75 225 7.0 19.0 0.00 0.00 0.00 62 1010.8
20260830084543 75 225 7.0 19.0 0.00 0.00 0.00 62 1010.7
20260830084345 75 225 7.0 19.0 0.00 0.00 0.00 61 1010.8
20260830084156 75 202 7.0 9.0 0.00 0.00 0.00 63 1010.7
20260830084006 75 292 7.0 10.0 0.00 0.00 0.00 63 1010.6
20260830083917 75 180 7.0 11.0 0.00 0.00 0.00 63 1010.6
20260830083815 75 248 7.0 11.0 0.00 0.00 0.00 62 1010.7
20260830083620 75 248 7.0 11.0 0.00 0.00 0.00 62 1010.7
20260830083417 75 270 8.0 10.0 0.00 0.00 0.00 61 1010.7
20260830083225 74 248 8.0 10.0 0.00 0.00 0.00 63 1010.8
20260830083040 74 202 8.0 13.0 0.00 0.00 0.00 63 1010.7
20260830082900 74 248 8.0 13.0 0.00 0.00 0.00 64 1010.7
20260830082710 74 202 9.0 13.0 0.00 0.00 0.00 63 1010.7
20260830082515 74 248 8.0 13.0 0.00 0.00 0.00 64 1010.7
20260830082335 74 158 8.0 12.0 0.00 0.00 0.00 64 1010.7
20260830082155 74 248 7.0 12.0 0.00 0.00 0.00 63 1010.8
20260830082027 74 225 6.0 11.0 0.00 0.00 0.00 64 1010.7
20260830082010 74 225 6.0 11.0 0.00 0.00 0.00 64 1010.7
20260830081830 74 225 6.0 11.0 0.00 0.00 0.00 64 1010.7
20260830081645 74 180 6.0 10.0 0.00 0.00 0.00 64 1010.7
20260830081503 74 270 6.0 10.0 0.00 0.00 0.00 63 1010.6
20260830081310 74 225 7.0 12.0 0.00 0.00 0.00 64 1010.7
20260830081110 74 202 7.0 12.0 0.00 0.00 0.00 63 1010.6
20260830080930 74 180 8.0 12.0 0.00 0.00 0.00 63 1010.6
20260830080740 74 202 8.0 12.0 0.00 0.00 0.00 64 1010.7
20260830080540 74 270 8.0 12.0 0.00 0.00 0.00 64 1010.6
20260830080350 74 202 8.0 12.0 0.00 0.00 0.00 65 1010.6
20260830080308 74 225 8.0 12.0 0.00 0.00 0.00 64 1010.7
20260830080205 74 225 8.0 12.0 0.00 0.00 0.00 64 1010.6
20260830080020 73 248 8.0 12.0 0.00 0.00 0.00 65 1010.6
20260830075820 73 225 8.0 11.0 0.00 0.00 0.00 65 1010.6
20260830075635 73 225 8.0 14.0 0.00 0.00 0.00 65 1010.6
20260830075454 73 180 8.0 16.0 0.00 0.00 0.00 65 1010.5
20260830075255 73 202 8.0 16.0 0.00 0.00 0.00 66 1010.6
20260830075055 73 202 7.0 17.0 0.00 0.00 0.00 66 1010.6
20260830074902 73 248 7.0 17.0 0.00 0.00 0.00 66 1010.6
20260830074715 73 248 7.0 17.0 0.00 0.00 0.00 66 1010.6
20260830074535 73 202 7.0 17.0 0.00 0.00 0.00 65 1010.6
20260830074345 73 225 6.0 11.0 0.00 0.00 0.00 65 1010.5
20260830074154 73 292 6.0 10.0 0.00 0.00 0.00 65 1010.7
20260830074005 73 292 6.0 10.0 0.00 0.00 0.00 67 1010.6
20260830073809 73 225 6.0 9.0 0.00 0.00 0.00 66 1010.8
20260830073612 73 202 7.0 9.0 0.00 0.00 0.00 66 1010.7
20260830073424 72 202 6.0 10.0 0.00 0.00 0.00 67 1010.7
20260830073235 72 225 7.0 10.0 0.00 0.00 0.00 68 1010.7
20260830073045 72 225 7.0 11.0 0.00 0.00 0.00 67 1010.7
20260830072900 72 202 7.0 11.0 0.00 0.00 0.00 67 1010.7
20260830072853 72 270 7.0 11.0 0.00 0.00 0.00 67 1010.7
20260830072711 72 202 7.0 11.0 0.00 0.00 0.00 67 1010.7
20260830072520 72 270 7.0 14.0 0.00 0.00 0.00 67 1010.7
20260830072356 72 225 7.0 14.0 0.00 0.00 0.00 68 1010.7
20260830072200 72 225 7.0 14.0 0.00 0.00 0.00 68 1010.7
20260830072000 72 248 7.0 14.0 0.00 0.00 0.00 68 1010.6
20260830071820 72 225 7.0 14.0 0.00 0.00 0.00 68 1010.7
20260830071631 72 248 7.0 14.0 0.00 0.00 0.00 69 1010.6
20260830071450 71 202 7.0 14.0 0.00 0.00 0.00 69 1010.7
20260830071300 71 225 7.0 14.0 0.00 0.00 0.00 70 1010.6
20260830071204 71 180 8.0 14.0 0.00 0.00 0.00 69 1010.6
20260830071120 71 248 8.0 14.0 0.00 0.00 0.00 69 1010.6
20260830070940 71 248 7.0 14.0 0.00 0.00 0.00 69 1010.6
20260830070745 71 202 7.0 14.0 0.00 0.00 0.00 69 1010.6
20260830070604 71 225 6.0 11.0 0.00 0.00 0.00 69 1010.7
20260830070415 71 202 6.0 11.0 0.00 0.00 0.00 69 1010.7
20260830070235 71 248 6.0 10.0 0.00 0.00 0.00 70 1010.6
20260830070040 71 180 6.0 9.0 0.00 0.00 0.00 70 1010.6
20260830065850 70 202 6.0 10.0 0.00 0.00 0.00 70 1010.6
20260830065705 70 180 6.0 10.0 0.00 0.00 0.00 70 1010.6
20260830065510 70 180 6.0 10.0 0.00 0.00 0.00 71 1010.7
20260830065326 70 202 6.0 9.0 0.00 0.00 0.00 71 1010.6
20260830065307 70 248 6.0 9.0 0.00 0.00 0.00 71 1010.6
20260830065142 70 202 5.0 10.0 0.00 0.00 0.00 73 1010.7
20260830065005 69 225 5.0 10.0 0.00 0.00 0.00 73 1010.6
20260830064815 69 292 5.0 10.0 0.00 0.00 0.00 73 1010.6
20260830064630 69 202 5.0 9.0 0.00 0.00 0.00 74 1010.6
20260830064430 69 225 5.0 8.0 0.00 0.00 0.00 74 1010.6
20260830064255 69 292 5.0 10.0 0.00 0.00 0.00 74 1010.6
20260830064116 69 158 5.0 10.0 0.00 0.00 0.00 75 1010.6
20260830063920 69 202 6.0 10.0 0.00 0.00 0.00 75 1010.6
20260830063730 69 248 6.0 7.0 0.00 0.00 0.00 75 1010.6
20260830063552 69 158 6.0 10.0 0.00 0.00 0.00 75 1010.6
20260830063538 69 180 5.0 10.0 0.00 0.00 0.00 75 1010.6
20260830063348 69 202 6.0 10.0 0.00 0.00 0.00 75 1010.5
20260830063200 69 158 6.0 9.0 0.00 0.00 0.00 75 1010.5
20260830063015 69 180 6.0 9.0 0.00 0.00 0.00 75 1010.5
20260830062833 69 248 5.0 8.0 0.00 0.00 0.00 75 1010.5
20260830062635 69 180 6.0 8.0 0.00 0.00 0.00 75 1010.6
20260830062437 68 202 6.0 8.0 0.00 0.00 0.00 75 1010.5
20260830062300 68 202 6.0 8.0 0.00 0.00 0.00 76 1010.6
20260830062100 68 202 6.0 8.0 0.00 0.00 0.00 76 1010.5
20260830061907 68 225 6.0 8.0 0.00 0.00 0.00 75 1010.6
20260830061706 68 68 6.0 8.0 0.00 0.00 0.00 76 1010.6
20260830061515 68 248 6.0 8.0 0.00 0.00 0.00 75 1010.6
20260830061330 68 158 6.0 8.0 0.00 0.00 0.00 76 1010.5
20260830061150 68 202 6.0 8.0 0.00 0.00 0.00 77 1010.5
20260830060950 68 202 6.0 9.0 0.00 0.00 0.00 77 1010.5
20260830060811 68 202 6.0 9.0 0.00 0.00 0.00 77 1010.5
20260830060620 68 112 6.0 9.0 0.00 0.00 0.00 76 1010.5
20260830060433 67 180 6.0 8.0 0.00 0.00 0.00 77 1010.5
20260830060342 67 202 6.0 9.0 0.00 0.00 0.00 77 1010.6
20260830060250 67 270 6.0 9.0 0.00 0.00 0.00 77 1010.6
20260830060100 67 202 6.0 9.0 0.00 0.00 0.00 77 1010.6
20260830055914 67 202 6.0 11.0 0.00 0.00 0.00 77 1010.5
20260830055735 67 202 6.0 11.0 0.00 0.00 0.00 77 1010.6
20260830055545 67 225 7.0 11.0 0.00 0.00 0.00 76 1010.6
20260830055400 67 202 6.0 10.0 0.00 0.00 0.00 77 1010.6
20260830055210 67 180 7.0 10.0 0.00 0.00 0.00 77 1010.5
20260830055015 67 158 6.0 10.0 0.00 0.00 0.00 76 1010.5
20260830054825 67 180 6.0 10.0 0.00 0.00 0.00 76 1010.6
20260830054743 67 225 6.0 9.0 0.00 0.00 0.00 76 1010.6
20260830054645 67 248 6.0 9.0 0.00 0.00 0.00 76 1010.6
20260830054450 67 202 6.0 9.0 0.00 0.00 0.00 76 1010.5
20260830054250 67 202 6.0 9.0 0.00 0.00 0.00 76 1010.5
20260830054110 67 202 6.0 8.0 0.00 0.00 0.00 77 1010.5